Ukiah, CA

6:27 PM PST on February 10, 2016 (GMT -0800)
Ukiah Municipal

Weather History for KUKI - February, 2012

Change the Weather History Date:

Thursday, February 2, 2012

  Actual Average Record
Temperature  
Mean Temperature 51 °F 48 °F  
Max Temperature 68 °F 59 °F 77 °F (1935)
Min Temperature 34 °F 38 °F 20 °F (1922)
Degree Days  
Heating Degree Days 14 17  
Month to date heating degree days 29 34  
Since 1 July heating degree days 1797 1834  
Cooling Degree Days 0 0  
Month to date cooling degree days 0 0  
Year to date cooling degree days 0 0  
Moisture  
Dew Point 39 °F    
Average Humidity 68    
Maximum Humidity 100    
Minimum Humidity 35    
Precipitation  
Precipitation 0.00 in 0.17 in 3.30 in (1915)
Month to date precipitation 0.06 0.32  
Year to date precipitation 2.22 7.33  
Since 1 July precipitation 8.94  
Snow  
Snow 0.00 in - - ()
Month to date snowfall  
Since 1 July snowfall 0.0  
Snow Depth 0.00 in    
Sea Level Pressure  
Sea Level Pressure 30.17 in    
Wind  
Wind Speed 1 mph (NNW)    
Max Wind Speed 4 mph    
Max Gust Speed -    
Visibility 7 miles    
Events Fog    
T = Trace of Precipitation, MM = Missing Value Source: NWS Daily Summary

Daily Weather History Graph

Daily Weather History Graph

Search for Another Location

Airport or City:

Trip Planner

Search our weather history database for the weather conditions in past years. The results will help you decide how hot, cold, wet, or windy it might be!

Date:

Astronomy

Feb. 02, 2012 Rise Set
Actual Time 7:18 AM PST 5:34 PM PST
Civil Twilight 6:50 AM PST 6:02 PM PST
Nautical Twilight 6:18 AM PST 6:34 PM PST
Astronomical Twilight 5:47 AM PST 7:06 PM PST
Moon 12:51 PM PST (2/2) 3:05 AM PST (2/2)
Length of Visible Light 11h 11m
Length of Day
10h 15m
Waxing Gibbous, 74% of the Moon is Illuminated
Feb 2
Waxing Gibbous
Feb 7
Full
Feb 14
Last Quarter
Feb 21
New
Feb 29
First Quarter

Hourly Weather History & Observations

Time (PST) Temp. Windchill Dew Point Humidity Pressure Visibility Wind Dir Wind Speed Gust Speed Precip Events Conditions
12:56 AM 42.1 °F - 39.9 °F 92% 30.28 in 9.0 mi Calm Calm - N/A   Clear
1:56 AM 39.9 °F - 39.0 °F 97% 30.29 in 10.0 mi Calm Calm - N/A   Clear
2:56 AM 39.9 °F - 39.0 °F 97% 30.27 in 9.0 mi Calm Calm - N/A   Clear
3:25 AM 37.4 °F - 37.4 °F 100% 30.26 in 5.0 mi Calm Calm - N/A   Scattered Clouds
3:56 AM 39.0 °F - 37.0 °F 93% 30.25 in 10.0 mi Calm Calm - N/A   Clear
4:21 AM 37.4 °F - 35.6 °F 93% 30.25 in 9.0 mi Calm Calm - N/A   Scattered Clouds
4:34 AM 37.4 °F - 37.4 °F 100% 30.25 in 10.0 mi Calm Calm - N/A   Mostly Cloudy
4:45 AM 37.4 °F - 37.4 °F 100% 30.25 in 10.0 mi Calm Calm - N/A   Mostly Cloudy
4:56 AM 37.0 °F - 36.0 °F 96% 30.24 in 10.0 mi Calm Calm - N/A   Mostly Cloudy
5:10 AM 37.4 °F - 37.4 °F 100% 30.24 in 10.0 mi Calm Calm - N/A   Mostly Cloudy
5:34 AM 37.4 °F - 37.4 °F 100% 30.23 in 1.8 mi Calm Calm - N/A   Overcast
5:49 AM 35.6 °F - 35.6 °F 100% 30.23 in 3.0 mi Calm Calm - N/A   Mostly Cloudy
5:56 AM 36.0 °F - 35.1 °F 97% 30.24 in 10.0 mi Calm Calm - N/A   Scattered Clouds
6:25 AM 35.6 °F 32.8 °F 35.6 °F 100% 30.23 in 7.0 mi East 3.5 mph - N/A   Mostly Cloudy
6:41 AM 33.8 °F - 33.8 °F 100% 30.24 in 1.5 mi Calm Calm - N/A   Mostly Cloudy
6:44 AM 33.8 °F - 33.8 °F 100% 30.24 in 0.8 mi Calm Calm - N/A   Mist
6:56 AM 35.1 °F - 35.1 °F 100% 30.24 in 0.5 mi Calm Calm - N/A Fog Fog
7:22 AM 35.6 °F - 35.6 °F 100% 30.24 in 0.2 mi Calm Calm - N/A Fog Fog
7:44 AM 37.4 °F - 35.6 °F 93% 30.23 in 0.2 mi Calm Calm - N/A Fog Fog
7:56 AM 37.0 °F - 37.0 °F 100% 30.24 in 0.5 mi Calm Calm - N/A Fog Fog
8:17 AM 37.4 °F - 37.4 °F 100% 30.23 in 0.2 mi Calm Calm - N/A Fog Fog
8:25 AM 37.4 °F - 37.4 °F 100% 30.23 in 0.2 mi Calm Calm - N/A Fog Fog
8:40 AM 37.4 °F - 37.4 °F 100% 30.22 in 1.2 mi Calm Calm - N/A   Mostly Cloudy
8:48 AM 39.2 °F - 39.2 °F 100% 30.22 in 9.0 mi Calm Calm - N/A   Mostly Cloudy
8:56 AM 39.9 °F - 39.9 °F 100% 30.22 in 10.0 mi Calm Calm - N/A   Scattered Clouds
9:56 AM 46.0 °F 44.8 °F 39.9 °F 79% 30.20 in 10.0 mi North 3.5 mph - N/A   Clear
10:56 AM 51.1 °F - 41.0 °F 68% 30.18 in 10.0 mi Variable 3.5 mph - N/A   Clear
11:56 AM 55.0 °F - 41.0 °F 59% 30.13 in 10.0 mi Calm Calm - 0.01 in   Clear
12:56 PM 60.1 °F - 41.0 °F 49% 30.08 in 10.0 mi Calm Calm - N/A   Clear
1:56 PM 64.9 °F - 39.9 °F 40% 30.04 in 10.0 mi Calm Calm - N/A   Clear
2:56 PM 68.0 °F - 39.9 °F 36% 30.01 in 10.0 mi Calm Calm - N/A   Clear
3:56 PM 66.0 °F - 46.0 °F 48% 29.99 in 10.0 mi WNW 3.5 mph - N/A   Clear
4:56 PM 60.1 °F - 45.0 °F 57% 29.98 in 10.0 mi Calm Calm - N/A   Clear
5:56 PM 55.9 °F - 45.0 °F 67% 29.98 in 10.0 mi West 3.5 mph - N/A   Clear
6:56 PM 52.0 °F - 45.0 °F 77% 29.99 in 10.0 mi Calm Calm - N/A   Clear
7:56 PM 48.9 °F - 44.1 °F 83% 29.99 in 10.0 mi Calm Calm - N/A   Clear
8:56 PM 48.0 °F - 44.1 °F 86% 29.99 in 9.0 mi Calm Calm - N/A   Clear
9:56 PM 43.0 °F - 41.0 °F 93% 30.00 in 10.0 mi Calm Calm - N/A   Clear
10:56 PM 41.0 °F - 39.0 °F 93% 30.01 in 10.0 mi Calm Calm - N/A   Clear
11:56 PM 41.0 °F - 39.0 °F 93% 30.01 in 9.0 mi Calm Calm - N/A   Clear